Tracking 30701 objects as of 14-Jun-2025
HD Live streaming from Space Station
objects crossing your sky now

NOAA 16 DEB

Track NOAA 16 DEB now!
10-day predictions


NORAD ID: 41652
Int'l Code: 2000-055NR
Perigee: 749.6 km
Apogee: 803.9 km
Inclination: 98.9 °
Period: 100.2 minutes
Semi major axis: 7147 km
RCS: Unknown
Launch date: September 21, 2000
Source: United States (US)
Launch site: AIR FORCE WESTERN TEST RANGE (AFWTR)

Note: This is SATELLITE DEBRIS
Your satellite tracking list
Your tracking list is empty




NASA's NSSDC Master Catalog

Two Line Element Set (TLE):
1 41652U 00055NR  25162.21869916  .00007570  00000-0  25636-2 0  9999
2 41652  98.8797 259.3786 0037953  98.7775 261.7711 14.36647659471578
Source of the keplerian elements: AFSPC